{"data":{"norad_id":63480,"epoch":"2026-09-20T07:30:08.527680Z","epoch_age_seconds":172603,"freshness":"FRESH","line1":"1 63480U 25070W   26263.31259870  .00000792  00000+0  38325-4 0  9991","line2":"2 63480  42.9981 236.9994 0000778 194.5546 165.5283 15.27539560 82782","mean_motion":15.2753956,"eccentricity":7.78e-5,"inclination_deg":42.9981,"raan_deg":236.9994,"arg_perigee_deg":194.5546,"mean_anomaly_deg":165.5283,"bstar":3.8325e-5,"rev_number":8278,"period_min":94.269244326478,"perigee_km":482.63638091991,"apogee_km":483.70400031877,"semimajor_km":6861.3071906193,"source":"CELESTRAK","updated_at":"2026-09-21T09:00:35.011386Z"}}